This information is not intended to be used as official crime data. This program does not provide information about all crimes, and excludes specific incidents such as sexual assaults and child abuse.

Disclaimer: The Jacksonville Sheriff's Office makes every effort to produce and publish current and accurate information. No warranties, expressed or implied, are provided for the data herein, its use, or its interpretation. The services provided are for informational purposes only and should not be relied on for any type of legal action.

Note: Calls in red are active.

Last refreshed 10/24 07:54:12

Incident # Dispatched Block Address Signal Call Description Comments
141024741141 10-24 07:23 500 W 49TH ST 63 DISPUTE
141024741168 10-24 07:23 14700 MARSH VIEW DR 13 SUSPICIOUS PERSON
141024741128 10-24 07:21 1000 STARK ST 22 DOMESTIC DISTURBANCE
141024741161 10-24 07:20 1200 UNIVERSITY BLVD 32S BURGLAR ALARM - SILENT
141024741111 10-24 07:19 600 E ADAMS ST 63 DISPUTE
141024741160 10-24 07:19 10500 W BALMORAL CIR 63 DISPUTE
141024741155 10-24 07:16 7000 GAILLARDIA CT 63 DISPUTE
141024741153 10-24 07:14 OLD ST AUGUSTINE RD AND HOOD RD 4 53 TRAFFIC CRASH PERSON INJURED
141024741152 10-24 07:13 10800 FT CAROLINE RD 32 BURGLAR ALARM - AUDIBLE
141024741151 10-24 07:11 1500 HENDRICKS AVE 32 BURGLAR ALARM - AUDIBLE
141024741088 10-24 07:10 6400 BLUE LEAF LN 21C BURGLARY CONVEYANCE
141024741150 10-24 07:10 9100 PHILLIPS HWY 32 BURGLAR ALARM - AUDIBLE
141024741149 10-24 07:09 6300 FALBRIDGE CT 14CJ VANDALISM CONVEYANCE JUST OCCURRED
141024741147 10-24 07:08 8100 ALDERMAN RD 4 AUTO CRASH
141024741145 10-24 07:05 4800 ATLANTIC BLVD 63 DISPUTE
141024741143 10-24 07:03 1300 DANCY ST 10 AUTO THEFT
141024741142 10-24 07:03 100 W FORSYTH ST 32 BURGLAR ALARM - AUDIBLE
141024741098 10-24 07:03 9200 N WHISPER GLEN DR 14R VANDALISM RESIDENCE
141024741117 10-24 07:00 12100 LEM TURNER RD 54 ILLEGALLY PARKED CAR
141024741133 10-24 06:57 12600 N MAIN ST 32 BURGLAR ALARM - AUDIBLE
141024741137 10-24 06:55 3900 N MEADOWVIEW DR 32 BURGLAR ALARM - AUDIBLE
141024741134 10-24 06:55 BEACH BLVD AND ATLANTIC BLVD 16 ROAD OBSTRUCTION
141024741129 10-24 06:51 3700 WINTON DR 32S BURGLAR ALARM - SILENT
141024741099 10-24 06:48 500 LAWTON AVE 1066 CANCEL
141024741126 10-24 06:47 S I95 EXPWY AND ATLANTIC BLVD 16 ROAD OBSTRUCTION
141024741122 10-24 06:46 N I95 EXPWY AND S I295 EXPWY 12 RECKLESS DRIVER
141024741121 10-24 06:45 7400 WILSON BLVD 32S BURGLAR ALARM - SILENT
141024741112 10-24 06:31 7100 CIVIC CLUB DR 32S BURGLAR ALARM - SILENT
141024741105 10-24 06:30 1000 S EDGEWOOD AVE 50 FOUND/ABANDONED PROPERTY
141024741050 10-24 06:24 6500 SKYLER JEAN DR 10 AUTO THEFT
141024741102 10-24 06:23 300 MILL CREEK RD 32 BURGLAR ALARM - AUDIBLE
141024741100 10-24 06:22 11600 W COLUMBIA PARK DR 32 BURGLAR ALARM - AUDIBLE
141024741092 10-24 06:21 2200 W EDGEWOOD AVE 63 DISPUTE
141024741096 10-24 06:21 3200 STUART ST 14R VANDALISM RESIDENCE
141024741071 10-24 06:21 9300 BRUNTSFIELD DR 63 DISPUTE
141024741097 10-24 06:20 ASSISI LN AND CYPRESS LANDING DR 76 ASSIST OTHER AGENCY
141024741094 10-24 06:19 2400 E LINCOLN CT 0 21RP ARMED BURGLARY RESIDENCE IN PROGRESS
141024741091 10-24 06:14 4000 BALTIC ST 32S BURGLAR ALARM - SILENT
141024741087 10-24 06:12 N I295 EXPWY AND ZOO PKWY 96 ASSIST MOTORIST
141024741086 10-24 06:11 1300 MONUMENT RD 32 BURGLAR ALARM - AUDIBLE
141024741085 10-24 06:07 7200 N EUDINE DR 76 ASSIST OTHER AGENCY
141024741073 10-24 05:59 PEACH DR AND LEAHY RD 64 NOISE COMPLAINT
141024741064 10-24 05:57 6500 W ARANCIO DR 14R VANDALISM RESIDENCE
141024741078 10-24 05:54 2600 DUNN AVE 63 DISPUTE
141024741074 10-24 05:51 6000 KINNON DR 27 MENTALLY ILL PERSON
141024741077 10-24 05:50 10400 LONE STAR RD 32S BURGLAR ALARM - SILENT
141024741076 10-24 05:49 800 S LANE AVE 27 MENTALLY ILL PERSON
141024741075 10-24 05:48 5400 N MAIN ST 27 MENTALLY ILL PERSON
141024741070 10-24 05:48 5100 N MAIN ST 37 UNVERIFIED 911 CALL
141024741066 10-24 05:45 8500 S MOSS POINTE TRL 64 NOISE COMPLAINT
141024741052 10-24 05:44 1600 HAMMOND BLVD 32 BURGLAR ALARM - AUDIBLE
141024741068 10-24 05:33 4800 TOCOBAGA LN 32 BURGLAR ALARM - AUDIBLE
141024741056 10-24 05:25 3000 MONUMENT RD 32 BURGLAR ALARM - AUDIBLE
141024741053 10-24 05:25 12000 SAVERIO LN 32 BURGLAR ALARM - AUDIBLE
141024741062 10-24 05:25 CLAUDIA SPENCER ST AND PHOENIX AVE 62 PERSON CUT
141024741061 10-24 05:22 COMMONWEALTH AVE AND N EDGEWOOD AVE 60 SUICIDE OR ATTEMPT
141024741051 10-24 05:22 100 W UNION ST 63 DISPUTE
141024741060 10-24 05:21 7000 COMMONWEALTH AVE 1066 CANCEL
141024741048 10-24 05:20 3100 EMERSON ST 32S BURGLAR ALARM - SILENT
141024741058 10-24 05:18 1900 SAN MARCO BLVD 1066 CANCEL
141024741047 10-24 05:09 3400 EVERGREEN AVE 32 BURGLAR ALARM - AUDIBLE
141024741049 10-24 05:09 MC CORMICK RD AND MONUMENT RD 4 29 CRASH - WIRE DOWN
141024741038 10-24 05:07 1000 E 3RD ST 63 DISPUTE
141024741041 10-24 05:01 7100 NORTHLAND ST 2 63 DISPUTE INVOLVING ALCOHOL
141024741036 10-24 04:54 3600 CEDAR DR 10J AUTO THEFT JUST OCCURRED
141024741034 10-24 04:51 12300 DEL RIO DR 32 BURGLAR ALARM - AUDIBLE
141024741033 10-24 04:48 7200 TYNAN AVE 32 BURGLAR ALARM - AUDIBLE
141024741007 10-24 04:37 8000 ARLINGTON EXPWY 2 63 DISPUTE INVOLVING ALCOHOL
141024741021 10-24 04:32 5000 BIG ISLAND DR 88 ASSAULT
141024741012 10-24 04:24 4600 BRANNON AVE 13 SUSPICIOUS PERSON
141024740993 10-24 04:21 WILSON BLVD AND S LANE AVE 96 ASSIST MOTORIST
141024741009 10-24 04:21 6900 W SOUTHERN OAKS DR 21C BURGLARY CONVEYANCE
141024741003 10-24 04:13 6900 JULIET LN 2 63 DISPUTE INVOLVING ALCOHOL
141024740996 10-24 04:11 7500 RABORN LN 33 DISCHARGING OF FIREARM
141024740992 10-24 04:06 1200 S LANE AVE 63 DISPUTE
141024740988 10-24 03:46 N OLD MIDDLEBURG RD AND NOROAD 57 PERSON CALLING FOR HELP
141024740985 10-24 03:43 100 TIMUQUANA BRG 16 ROAD OBSTRUCTION
141024740986 10-24 03:42 7900 103RD ST 1066 CANCEL
141024740983 10-24 03:32 5000 CLARENDON RD 4 AUTO CRASH
141024740969 10-24 03:31 8100 TEATICKET DR 14RJ VANDALISM RESIDENCE JUST OCCURRED
141024740981 10-24 03:28 3000 ERNEST ST 13 SUSPICIOUS PERSON
141024740978 10-24 03:23 6900 N BUSINESS PARK BLVD 1066 CANCEL
141024740952 10-24 03:22 3200 RICKY DR 22 DOMESTIC DISTURBANCE
141024740972 10-24 03:17 1300 W EDGEWOOD AVE 96 ASSIST MOTORIST
141024740971 10-24 03:17 7900 PEARL ST 13 SUSPICIOUS PERSON
141024740970 10-24 03:14 200 KIRK RD 64 NOISE COMPLAINT
141024740963 10-24 03:10 8900 WESTERN WAY 32S BURGLAR ALARM - SILENT
141024740966 10-24 03:09 7300 ELWOOD AVE 63 DISPUTE
141024740964 10-24 03:07 POST ST AND MELBA ST 3 HIT AND RUN CRASH
141024740956 10-24 03:00 6100 NORSE DR 3 HIT AND RUN CRASH
141024740957 10-24 02:59 4500 HARLOW BLVD 63 DISPUTE
141024740948 10-24 02:57 3400 S SAN PABLO RD 76 ASSIST OTHER AGENCY
141024740903 10-24 02:56 DELTA AVE AND HAMILTON ST 6388 DISPUTE WITH ASSAULT
141024740939 10-24 02:52 8000 ATLANTIC BLVD 1 IMPAIRED/RECKLESS DRIVER
141024740923 10-24 02:50 2300 BETHUNE AVE 2 63 DISPUTE INVOLVING ALCOHOL
141024740942 10-24 02:46 BAYMEADOWS RD AND REEDY BRANCH DR 4 AUTO CRASH
141024740941 10-24 02:44 10900 BEACH BLVD 2 DRUNK PERSON
141024740933 10-24 02:40 2200 MAYPORT RD 32 BURGLAR ALARM - AUDIBLE
141024740931 10-24 02:37 100 N PEARL ST 76 ASSIST OTHER AGENCY
141024740929 10-24 02:36 12300 FISHERMANS WHARF CT 1066 CANCEL
141024740926 10-24 02:31 N I295 EXPWY AND NEW KINGS RD 12 RECKLESS DRIVER
141024740922 10-24 02:28 4200 PACKARD DR 60 SUICIDE OR ATTEMPT
141024740921 10-24 02:25 4900 BIG ISLAND DR 13 SUSPICIOUS PERSON
141024740920 10-24 02:23 8000 EATON AVE 3388 DISCHARGING FIREARM AT PERSON
141024740917 10-24 02:22 12700 ATLANTIC BLVD 1066 CANCEL
141024740918 10-24 02:22 400 E 4TH ST 32 BURGLAR ALARM - AUDIBLE
141024740906 10-24 02:21 5500 N CABOT DR 56 JUVENILE COMPLAINT
141024740914 10-24 02:20 10700 ATLANTIC BLVD 32 BURGLAR ALARM - AUDIBLE
141024740904 10-24 02:19 1000 BARBARA AVE 64 NOISE COMPLAINT
141024740910 10-24 02:16 4400 HARTMAN RD 32 BURGLAR ALARM - AUDIBLE
141024740913 10-24 02:16 8300 GALVESTON AVE 33 DISCHARGING OF FIREARM
141024740912 10-24 02:16 N BOWLAN ST AND KONA AVE 33 DISCHARGING OF FIREARM
141024740866 10-24 02:11 1000 GOLFAIR BLVD 63 DISPUTE
141024740896 10-24 02:09 12100 LEM TURNER RD 32 BURGLAR ALARM - AUDIBLE
141024740886 10-24 02:06 1700 S SAN PABLO RD 64 NOISE COMPLAINT
141024740858 10-24 02:05 8000 SUMMER BAY CT 64 NOISE COMPLAINT
141024740892 10-24 02:03 1600 WALNUT ST 32 BURGLAR ALARM - AUDIBLE
141024740893 10-24 02:03 4100 W WILCREST CIR 1066 CANCEL
141024740856 10-24 02:03 6200 103RD ST 22 DOMESTIC DISTURBANCE
141024740881 10-24 02:02 1200 W SKYE DR 64 NOISE COMPLAINT
141024740880 10-24 01:58 900 KENNARD ST 13 SUSPICIOUS PERSON
141024740877 10-24 01:50 1100 BUSAC AVE 33 DISCHARGING OF FIREARM
141024740876 10-24 01:49 900 LA MARCHE DR 33 DISCHARGING OF FIREARM
141024740874 10-24 01:47 12500 PULASKI RD 64 NOISE COMPLAINT
141024740875 10-24 01:46 11700 MC CORMICK RD 16 ROAD OBSTRUCTION
141024740862 10-24 01:44 7500 RABORN LN 33 DISCHARGING OF FIREARM
141024740870 10-24 01:43 MONCRIEF RD AND N MYRTLE AVE 1 IMPAIRED/RECKLESS DRIVER
141024740859 10-24 01:38 BLANDING BLVD AND WILSON BLVD 88P ASSAULT IN PROGRESS
141024740857 10-24 01:36 4300 PUTNAM AVE 63 DISPUTE
141024740855 10-24 01:35 5200 COLLINS RD 76 ASSIST OTHER AGENCY
141024740852 10-24 01:35 3700 DANFORTH DR 32 BURGLAR ALARM - AUDIBLE
141024740848 10-24 01:33 6900 ORTEGA WOODS DR 63 DISPUTE
141024740798 10-24 01:28 2800 FITZGERALD ST 63 DISPUTE
141024740837 10-24 01:28 1600 INDUSTRIAL BLVD 32 BURGLAR ALARM - AUDIBLE
141024740824 10-24 01:28 1000 N MC DUFF AVE 32 BURGLAR ALARM - AUDIBLE
141024740842 10-24 01:27 7700 BLANDING BLVD 1066 CANCEL
141024740839 10-24 01:26 1000 S OVINGTON RD 2 63 DISPUTE INVOLVING ALCOHOL
141024740836 10-24 01:24 7200 103RD ST 32 BURGLAR ALARM - AUDIBLE
141024740818 10-24 01:22 5300 107TH ST 22 DOMESTIC DISTURBANCE
141024740828 10-24 01:22 WILSON BLVD AND FOURAKER RD 4 AUTO CRASH
141024740830 10-24 01:22 1700 LEON RD 76 ASSIST OTHER AGENCY
141024740815 10-24 01:19 7600 103RD ST 1066 CANCEL
141024740825 10-24 01:19 1000 ASSISI LN 2 DRUNK PERSON
141024740822 10-24 01:16 3600 N MAIN ST 32 BURGLAR ALARM - AUDIBLE
141024740821 10-24 01:16 8000 SOUTHSIDE BLVD 63 DISPUTE
141024740820 10-24 01:15 200 W WATER ST 76 ASSIST OTHER AGENCY
141024740812 10-24 01:12 1200 E 8TH ST 27 MENTALLY ILL PERSON
141024740803 10-24 01:02 1300 CASSAT AVE 10P AUTO THEFT IN PROGRESS
141024740791 10-24 00:59 ST JOHNS AVE AND TALBOT AVE 63 DISPUTE
141024740796 10-24 00:58 700 PENINSULAR PL 32 BURGLAR ALARM - AUDIBLE
141024740766 10-24 00:55 1400 W 11TH ST 76 ASSIST OTHER AGENCY
141024740780 10-24 00:51 1100 PHELPS ST 13 SUSPICIOUS PERSON
141024740782 10-24 00:51 S I295 EXPWY AND BAYMEADOWS RD 4 53 TRAFFIC CRASH PERSON INJURED
141024740783 10-24 00:51 400 SUNSET DR 1066 CANCEL
141024740767 10-24 00:46 1000 WINTHROP ST 64 NOISE COMPLAINT
141024740777 10-24 00:45 13600 BEACH BLVD 2 DRUNK PERSON
141024740763 10-24 00:31 1200 BRIDIER ST 37 UNVERIFIED 911 CALL
141024740753 10-24 00:29 9700 TOUCHTON RD 64 NOISE COMPLAINT
141024740762 10-24 00:28 4100 SHIRLEY AVE 64 NOISE COMPLAINT
141024740716 10-24 00:25 4000 BROAD CREEK LN 63 DISPUTE
141024740756 10-24 00:25 ROOSEVELT BLVD AND COLLINS RD 11 ABANDONED VEHICLE
141024740752 10-24 00:25 HAVERFORD RD AND DE PAUL DR 33 DISCHARGING OF FIREARM
141024740747 10-24 00:23 4600 SALISBURY RD 63 DISPUTE
141024740745 10-24 00:22 7000 E KEN KNIGHT DR 76 ASSIST OTHER AGENCY
141024740744 10-24 00:21 4100 CROWNWOOD DR 32 BURGLAR ALARM - AUDIBLE
141024740743 10-24 00:20 6200 THUMPER ST 22 DOMESTIC DISTURBANCE
141024740741 10-24 00:20 8000 ATLANTIC BLVD 63 DISPUTE
141024740735 10-24 00:17 6200 LAKE GRAY BLVD 32 BURGLAR ALARM - AUDIBLE
141023740681 10-24 00:11 200 S MC DUFF AVE 63 DISPUTE
141024740721 10-24 00:08 1500 HOWARD RD 22 DOMESTIC DISTURBANCE
141024740717 10-24 00:05 4200 MAGILL RD 22 DOMESTIC DISTURBANCE
141024740715 10-24 00:04 7500 CINNAMON TEA CT 1066 CANCEL
141024740713 10-24 00:03 S PEARL ST AND WATER ST 9 THEFT
141023740705 10-24 00:02 8700 SOUTHSIDE BLVD 22 DOMESTIC DISTURBANCE
141023740706 10-23 23:58 7100 NORTHLAND ST 2 22 DOMESTIC DISTURBANCE
141023740703 10-23 23:55 1100 GROTHE ST 88P ASSAULT IN PROGRESS
141023740693 10-23 23:51 10500 E BRIARCLIFF RD 13 SUSPICIOUS PERSON
141023740675 10-23 23:47 4800 SEASCAPE WAY 37 UNVERIFIED 911 CALL
141023740689 10-23 23:47 5000 N MAIN ST 5361 FIGHT INVOLVING INJURY
141023740669 10-23 23:43 S I295 EXPWY AND ZOO PKWY 4 AUTO CRASH
141023740680 10-23 23:43 7000 S OLD KINGS RD 63 DISPUTE
141023740676 10-23 23:40 5800 SAN JUAN AVE 63 DISPUTE
141023740604 10-23 23:36 100 KING ST 63 DISPUTE
141023740668 10-23 23:35 300 LAMSON ST 32 BURGLAR ALARM - AUDIBLE
141023740665 10-23 23:35 1300 N DAVIS ST 63 DISPUTE
141023740667 10-23 23:34 1700 JEFFERSON RD 13 SUSPICIOUS PERSON
141023740637 10-23 23:34 4600 SALISBURY RD 63 DISPUTE
141023740664 10-23 23:33 2400 PATSY ANNE DR 33 DISCHARGING OF FIREARM
141023740601 10-23 23:33 3200 THOMAS ST 3 HIT AND RUN CRASH
141023740662 10-23 23:32 2700 TRACK TRL 63 DISPUTE
141023740660 10-23 23:32 N I295 EXPWY AND PRITCHARD RD 4 53 TRAFFIC CRASH PERSON INJURED
141023740651 10-23 23:32 LAYTON RD AND SHELTON RD 63 DISPUTE
141023740658 10-23 23:30 8000 HARDING AVE 63 DISPUTE
141023740648 10-23 23:28 5800 EDENFIELD RD 63 DISPUTE
141023740649 10-23 23:26 8200 WHITE FALLS BLVD 63 DISPUTE
141023740650 10-23 23:26 1000 US HWY 301 12 RECKLESS DRIVER
141023740635 10-23 23:23 900 BERT RD 64 NOISE COMPLAINT
141023740553 10-23 23:22 2900 SPRING PARK RD 22 DOMESTIC DISTURBANCE
141023740630 10-23 23:21 10100 BEACH BLVD 63 DISPUTE
141023740624 10-23 23:19 5500 NETTIE RD 33 DISCHARGING OF FIREARM
141023740622 10-23 23:19 5500 STETSON RD 33 DISCHARGING OF FIREARM
141023740636 10-23 23:19 W 11TH ST AND WILSON ST 64 NOISE COMPLAINT
141023740633 10-23 23:17 5100 COLLINS RD 33 DISCHARGING OF FIREARM
141023740631 10-23 23:16 2000 ELLA ST 13 SUSPICIOUS PERSON
141023740595 10-23 23:15 1100 KENNARD ST 19 ANIMAL INVESTIGATION
141023740628 10-23 23:15 1900 N MAIN ST 32 BURGLAR ALARM - AUDIBLE
141023740370 10-23 23:13 OLD KINGS RD AND GARDNER LN 64 NOISE COMPLAINT
141023740619 10-23 23:12 8500 TOUCHTON RD 2 DRUNK PERSON
141023740621 10-23 23:12 103RD ST AND RICKER RD 22 DOMESTIC DISTURBANCE
141023740582 10-23 23:12 400 WET ROCK LN 64 NOISE COMPLAINT
141023740616 10-23 23:12 7400 POWERS AVE 2288 DOMESTIC DISPUTE WITH/ASSAULT
141023740608 10-23 23:10 6000 KINNON DR 37 UNVERIFIED 911 CALL
141023740548 10-23 23:04 10100 N GATE PKWY 3 HIT AND RUN CRASH
141023740592 10-23 23:02 600 STOCKTON ST 13 SUSPICIOUS PERSON
141023740590 10-23 23:02 7600 103RD ST 2 63 DISPUTE INVOLVING ALCOHOL
141023740581 10-23 23:01 N PEARL ST AND W 7TH ST 13 SUSPICIOUS PERSON
141023740588 10-23 23:01 800 ALDERMAN RD 28 DELIVER MESSAGE
141023740591 10-23 23:01 9200 REDTAIL CT 98 THROWING MISSILES
141023740580 10-23 23:00 4100 SHIRLEY AVE 64 NOISE COMPLAINT
141023740573 10-23 22:59 2400 EDWARDS AVE 13 SUSPICIOUS PERSON
141023740579 10-23 22:59 2900 ROSSELLE ST 63 DISPUTE
141023740531 10-23 22:55 4700 E KERNAN MILL LN 63 DISPUTE
141023740572 10-23 22:54 11400 BEACH BLVD 63 DISPUTE
141023740556 10-23 22:53 6700 103RD ST 64 NOISE COMPLAINT
141023740562 10-23 22:50 COLLEGE ST AND OSCEOLA ST 13 SUSPICIOUS PERSON
141023740566 10-23 22:50 2300 WOOD HILL PL 63 DISPUTE
141023740567 10-23 22:49 S I95 EXPWY AND J TURNER BUTLER BLVD 4 53 TRAFFIC CRASH PERSON INJURED
141023740561 10-23 22:49 4400 HERSCHEL ST 13 SUSPICIOUS PERSON
141023740564 10-23 22:48 6700 WURN PARK CT 63 DISPUTE
141023740563 10-23 22:48 2800 W REGAS DR 63 DISPUTE
141023740540 10-23 22:45 1100 LAS ROBIDA DR 63 DISPUTE
141023740552 10-23 22:42 4900 SUNBEAM RD 6388 DISPUTE WITH ASSAULT
141023740541 10-23 22:38 1600 E 8TH ST 8 27 MISSING MENTALLY ILL
141023740506 10-23 22:37 4400 HODGES BLVD 64 NOISE COMPLAINT
141023740524 10-23 22:37 7100 KARENITA DR 22 DOMESTIC DISTURBANCE
141023740520 10-23 22:35 11400 N BEACON DR 88 ASSAULT
141023740535 10-23 22:34 3200 ROSSELLE ST 63 DISPUTE
141023740538 10-23 22:34 5600 COLLINS RD 27 MENTALLY ILL PERSON
141023740534 10-23 22:32 8000 SPRINGTREE RD 32 BURGLAR ALARM - AUDIBLE
141023740532 10-23 22:32 100 E 44TH ST 64 NOISE COMPLAINT
141023740525 10-23 22:31 1200 EASTER ST 63 DISPUTE
141023740528 10-23 22:30 3600 BRAMBLE RD 21RJ BURGLARY RESIDENCE JUST OCCURRED
141023740510 10-23 22:30 900 BERT RD 64 NOISE COMPLAINT
141023740518 10-23 22:30 1200 WAINWRIGHT DR 22 DOMESTIC DISTURBANCE
141023740523 10-23 22:27 6000 KINNON DR 21RP BURGLARY RESIDENCE IN PROGRESS
141023740521 10-23 22:26 1100 HOLMESDALE RD 13 SUSPICIOUS PERSON
141023740513 10-23 22:26 10900 BEACH BLVD 0 63 ARMED DISPUTE
141023740488 10-23 22:25 400 CASSAT AVE 4 AUTO CRASH
141023740516 10-23 22:24 2500 S TWIN SPRINGS DR 32X SILENT ALARM (ROBBERY PANIC OR AWARE)
141023740511 10-23 22:23 13700 BEACH BLVD 9 THEFT
141023740508 10-23 22:22 W GATE PKWY AND BELFORT RD 33 DISCHARGING OF FIREARM
141023740496 10-23 22:22 7700 TIMBERLIN PARK BLVD 33 DISCHARGING OF FIREARM
141023740509 10-23 22:21 4600 ALDEN ST 22 DOMESTIC DISTURBANCE
141023740505 10-23 22:20 10200 ATLANTIC BLVD 21B BURGLARY BUSINESS
141023740487 10-23 22:19 5300 SHEN AVE 21C BURGLARY CONVEYANCE
141023740501 10-23 22:19 W I10 EXPWY AND S LANE AVE 88P ASSAULT IN PROGRESS
141023740502 10-23 22:18 1200 EASTER ST 2 63 DISPUTE INVOLVING ALCOHOL
141023740500 10-23 22:18 2100 ST JOHNS AVE 90 FIREWORKS
141023740481 10-23 22:16 6100 N MAIN ST 2 63 DISPUTE INVOLVING ALCOHOL
141023740495 10-23 22:16 1600 RIVERSIDE AVE 90 FIREWORKS
141023740494 10-23 22:14 2000 SILVER ST 37 UNVERIFIED 911 CALL
141023740492 10-23 22:14 9500 COMMONWEALTH AVE 76 ASSIST OTHER AGENCY
141023740454 10-23 22:13 11400 BRIAN LAKES DR 8 MISSING PERSON
141023740486 10-23 22:13 2300 BETHUNE AVE 63 DISPUTE
141023740483 10-23 22:10 8100 N SPRING LAKE RD 22 DOMESTIC DISTURBANCE
141023740463 10-23 22:09 300 LAURINA ST 86T LOST PROPERTY (TELESERVE)
141023740479 10-23 22:07 12700 E ASHBROOK CIR 32 BURGLAR ALARM - AUDIBLE
141023740475 10-23 22:06 9700 SAN JOSE BLVD 90 FIREWORKS
141023740472 10-23 22:06 3500 SILVER ST 86T LOST PROPERTY (TELESERVE)
141023740477 10-23 22:06 15700 CANOE CREEK DR 22 DOMESTIC DISTURBANCE
141023740469 10-23 22:02 3800 SILVERPOINT LN 90 FIREWORKS
141023740466 10-23 22:02 8200 W GATE PKWY 90 FIREWORKS
141023740432 10-23 22:01 5700 HOEY TER 2288 DOMESTIC DISPUTE WITH/ASSAULT
141023740468 10-23 22:00 BLANDING BLVD AND 118TH ST 12 RECKLESS DRIVER
141023740338 10-23 22:00 13700 N SUTTON PARK DR 63 DISPUTE
141023740467 10-23 22:00 N I95 EXPWY AND MONTANA AVE 16 ROAD OBSTRUCTION
141023740398 10-23 22:00 9300 SIBBALD RD 87 DAMAGED PROPERTY
141023740301 10-23 21:59 5900 OLD LANE AVE 2 22 DOMESTIC DISTURBANCE
141023740449 10-23 21:55 9400 103RD ST 13 SUSPICIOUS PERSON
141023740441 10-23 21:54 7700 TOWNSEND RD 22 DOMESTIC DISTURBANCE
141023740445 10-23 21:52 1600 W 45TH ST 13 SUSPICIOUS PERSON
141023740448 10-23 21:52 12700 ATLANTIC BLVD 63 DISPUTE
141023740417 10-23 21:51 3400 SHREWSBURY DR 2288 DOMESTIC DISPUTE WITH/ASSAULT
141023740437 10-23 21:51 7700 TOWNSEND RD 1066 CANCEL
141023740406 10-23 21:50 1400 W 31ST ST 2 63 DISPUTE INVOLVING ALCOHOL
141023740311 10-23 21:49 10300 SOUTHSIDE BLVD 50 FOUND/ABANDONED PROPERTY
141023740421 10-23 21:47 9500 VALERIE ST 33 DISCHARGING OF FIREARM
141023740425 10-23 21:46 1700 W 2ND ST 27 MENTALLY ILL PERSON
141023740433 10-23 21:46 DUVAL STATION RD AND N MAIN ST 33 DISCHARGING OF FIREARM
141023740298 10-23 21:46 400 CASSAT AVE 63 DISPUTE
141023740397 10-23 21:45 W 33RD ST AND N PEARL ST 6388 DISPUTE WITH ASSAULT
141023740418 10-23 21:43 11000 CITRON CT 64 NOISE COMPLAINT
141023740427 10-23 21:42 1800 CHALLEN AVE 32 BURGLAR ALARM - AUDIBLE
141023740428 10-23 21:41 BELFORT RD AND TOUCHTON RD 13 SUSPICIOUS PERSON
141023740411 10-23 21:39 1500 MONUMENT RD 63 DISPUTE
141023740412 10-23 21:38 JUSTINA RD AND HOLLY BELL DR 64 NOISE COMPLAINT
141023740416 10-23 21:36 3900 OLD SUNBEAM RD 63 DISPUTE
141023740369 10-23 21:33 4200 WALNUT BEND 32 BURGLAR ALARM - AUDIBLE
141023740403 10-23 21:30 900 SHEARER AVE 2288 DOMESTIC DISPUTE WITH/ASSAULT
141023740401 10-23 21:29 5800 EDENFIELD RD 76 ASSIST OTHER AGENCY
141023740372 10-23 21:29 9000 2ND AVE 63 DISPUTE
141023740393 10-23 21:27 S I295 EXPWY AND N MAIN ST 1 IMPAIRED/RECKLESS DRIVER
141023740235 10-23 21:27 100 S LANE AVE 63 DISPUTE
141023740391 10-23 21:26 103RD ST AND TIMUQUANA RD 4 53 TRAFFIC CRASH PERSON INJURED
141023740296 10-23 21:25 1200 WAINWRIGHT DR 63 DISPUTE
141023740385 10-23 21:24 3200 MYRA ST 79 OBSCENE OR THREATENING COMM
141023740388 10-23 21:24 2100 W WILLESDON DR 76 ASSIST OTHER AGENCY
141023740340 10-23 21:23 11300 N MAIN ST 63 DISPUTE
141023740382 10-23 21:22 1000 ARCO DR 63 DISPUTE
141023740320 10-23 21:21 1900 DETROIT ST 63 DISPUTE
141023740362 10-23 21:20 100 N MAIN ST BRG 38 TRAFFIC ASSIGNMENT
141023740367 10-23 21:20 4200 HIGHWOOD DR 90 FIREWORKS
141023740373 10-23 21:18 8800 S OLD KINGS RD 1066 CANCEL
141023740302 10-23 21:18 10300 SOUTHSIDE BLVD 3 HIT AND RUN CRASH
141023740376 10-23 21:18 300 S SAHARA CT 8 MISSING PERSON
141023740371 10-23 21:17 200 SPRING FOREST AVE 1066 CANCEL
141023740354 10-23 21:15 7600 103RD ST 63 DISPUTE
141023740361 10-23 21:13 1900 W 9TH ST 76 ASSIST OTHER AGENCY
141023740327 10-23 21:12 8000 S TRIUMPH LN 22 DOMESTIC DISTURBANCE
141023740334 10-23 21:12 8400 W GATE PKWY 33 DISCHARGING OF FIREARM
141023740321 10-23 21:11 4300 SUNBEAM RD 63 DISPUTE
141023740333 10-23 21:10 8200 DAMES POINT CROSSING BLVD 64 NOISE COMPLAINT
141023740324 10-23 21:10 6500 DOR MIL CT 2 63 DISPUTE INVOLVING ALCOHOL
141023740351 10-23 21:10 100 E 8TH ST 13 SUSPICIOUS PERSON
141023740329 10-23 21:10 5100 COLLINS RD 21R BURGLARY RESIDENCE
141023740350 10-23 21:09 W 5TH ST AND N EDGEWOOD AVE 35 OFFICER NEEDS ASSIST
141023740307 10-23 21:08 2400 HOLMES ST 63 DISPUTE
141023740335 10-23 21:08 2300 4TH AVE 33 DISCHARGING OF FIREARM
141023740341 10-23 21:08 8600 E BAYMEADOWS RD 33 DISCHARGING OF FIREARM
141023740318 10-23 21:07 700 E HICKORY LAKES DR 22 DOMESTIC DISTURBANCE
141023740346 10-23 21:05 500 WOODBINE ST 2 63 DISPUTE INVOLVING ALCOHOL
141023740317 10-23 21:04 NORMANDY BLVD AND FOURAKER RD 4 AUTO CRASH
141023740345 10-23 21:04 S ST JOHNS BLUFF RD AND TOWN CENTER PKWY 76 ASSIST OTHER AGENCY
141023740342 10-23 21:03 2300 PHILLIPS HWY 76 ASSIST OTHER AGENCY
141023740310 10-23 21:03 5500 RICKER RD 63 DISPUTE
141023740322 10-23 20:59 8200 PHILLIPS HWY 63 DISPUTE
141023740319 10-23 20:57 10300 NORMANDY BLVD 13 SUSPICIOUS PERSON
141023740326 10-23 20:55 9000 CASTLE BLVD 76 ASSIST OTHER AGENCY
141023740303 10-23 20:55 100 N JULIA ST 63 DISPUTE
141023740316 10-23 20:52 3500 STILLMAN ST 6388 DISPUTE WITH ASSAULT
141023740313 10-23 20:51 3000 N MAIN ST 63 DISPUTE
141023740257 10-23 20:48 6000 NEW KINGS RD 63 DISPUTE
141023740294 10-23 20:47 11100 SAN JOSE BLVD 1066 CANCEL
141023740291 10-23 20:47 5500 N UNIVERSITY CLUB BLVD 32 BURGLAR ALARM - AUDIBLE
141023740278 10-23 20:46 1000 ARCO DR 63 DISPUTE
141023740297 10-23 20:45 3200 JUSTINA RD 12 RECKLESS DRIVER
141023740112 10-23 20:44 5300 OLD KINGS RD 63 DISPUTE
141023740293 10-23 20:43 5300 NORMANDY BLVD 2 DRUNK PERSON
141023740272 10-23 20:42 6400 ARGYLE FOREST BLVD 37 UNVERIFIED 911 CALL
141023740161 10-23 20:41 GREENHOLLY DR AND WOODTOP DR 63 DISPUTE
141023740283 10-23 20:38 BLANDING BLVD AND MORSE AVE 4 AUTO CRASH
141023740289 10-23 20:37 3600 PEACH DR 73 DRUG INVESTIGATION
141023740280 10-23 20:37 9100 PHILLIPS HWY 32 BURGLAR ALARM - AUDIBLE
141023740270 10-23 20:34 8700 NEWTON RD 63 DISPUTE
141023740176 10-23 20:34 10200 W BEAVER ST 76 ASSIST OTHER AGENCY
141023740250 10-23 20:34 10900 W BEAVER ST 50 FOUND/ABANDONED PROPERTY
141023740265 10-23 20:33 10400 N CENTURION PKWY 1066 CANCEL
141023740261 10-23 20:33 1300 W 30TH ST 37 UNVERIFIED 911 CALL
141023740277 10-23 20:33 1500 S LANE AVE 63 DISPUTE
141023740275 10-23 20:33 1600 W 45TH ST 33 DISCHARGING OF FIREARM
141023740206 10-23 20:32 9600 E WATERSHED DR 21CT BURGLARY CONVEYANCE TELESERVE
141023740209 10-23 20:31 LYNNWOOD AVE AND WESCONNETT BLVD 63 DISPUTE
141023740229 10-23 20:31 EMERSON ST AND PHILLIPS HWY 13 SUSPICIOUS PERSON
141023740216 10-23 20:31 7400 POWERS AVE 10 AUTO THEFT
141023740256 10-23 20:30 100 W UNION ST 63 DISPUTE
141023740122 10-23 20:30 1300 ARLINGWOOD AVE 9 THEFT
141023740258 10-23 20:30 3800 BAYMEADOWS RD 2 DRUNK PERSON
141023740271 10-23 20:28 1600 PERRY ST 64 NOISE COMPLAINT
141023740269 10-23 20:28 11700 PALM LAKE DR 22 DOMESTIC DISTURBANCE
141023740259 10-23 20:26 7900 ARLINGTON EXPWY 22 DOMESTIC DISTURBANCE
141023740264 10-23 20:26 3000 WOODLAWN RD 32 BURGLAR ALARM - AUDIBLE
141023740245 10-23 20:24 10300 BRADLEY RD 1066 CANCEL
141023740224 10-23 20:23 8000 MERRILL RD 4 AUTO CRASH
141023740252 10-23 20:23 1600 BISCAYNE BAY CIR 13 SUSPICIOUS PERSON
141023740249 10-23 20:21 10800 CREATIVE DR 20 PROWLER/PEEPING TOM
141023740195 10-23 20:21 5600 MARATHON PKWY 22 DOMESTIC DISTURBANCE
141023740247 10-23 20:20 1900 ART MUSEUM DR 2288 DOMESTIC DISPUTE WITH/ASSAULT
141023740148 10-23 20:19 8600 REEDY BRANCH DR 22 DOMESTIC DISTURBANCE
141023740237 10-23 20:19 14700 OLD ST AUGUSTINE RD 32 BURGLAR ALARM - AUDIBLE
141023740241 10-23 20:17 103RD ST AND RICKER RD 4 AUTO CRASH
141023740199 10-23 20:17 5200 W UNIVERSITY BLVD 63 DISPUTE
141023740239 10-23 20:16 9800 BAYMEADOWS RD 4 AUTO CRASH
141023740232 10-23 20:16 12500 WEEPING BRANCH CIR 37 UNVERIFIED 911 CALL
141023740238 10-23 20:16 FOREST BLVD AND WINDY HILL PL 16 ROAD OBSTRUCTION
141023740151 10-23 20:16 1500 S LANE AVE 63 DISPUTE
141023740185 10-23 20:15 7200 S OLD KINGS RD 63 DISPUTE
141023740192 10-23 20:15 7500 ARLINGTON EXPWY 21C BURGLARY CONVEYANCE
141023740228 10-23 20:15 1600 PERRY ST 33 DISCHARGING OF FIREARM
141023740179 10-23 20:13 COMMONWEALTH AVE AND DETROIT ST 16 ROAD OBSTRUCTION
141023740222 10-23 20:11 TAN ST AND CARON DR 63 DISPUTE
141023740113 10-23 20:11 1200 BROOKWOOD FOREST BLVD 63 DISPUTE
141023740201 10-23 20:11 11200 OLD ST AUGUSTINE RD 4 AUTO CRASH
141023740225 10-23 20:11 9100 LEM TURNER RD 9J THEFT JUST OCCURRED
141023740221 10-23 20:09 6100 TROUT RIVER BLVD 33 DISCHARGING OF FIREARM
141023740145 10-23 20:09 1600 PARADELA PL 63 DISPUTE
141023740214 10-23 20:08 8600 DUCKWORTH CT 63 DISPUTE
141023740207 10-23 20:06 1100 DUNN AVE 16 ROAD OBSTRUCTION
141023740215 10-23 20:05 10700 IOWA AVE 1066 CANCEL
141023740180 10-23 20:04 8100 W BEAVER ST 32 BURGLAR ALARM - AUDIBLE
141023740200 10-23 20:00 7900 E RONDEAU DR 8FP MISSING PERSON FOUL
141023740203 10-23 20:00 1200 W 29TH ST 1066 CANCEL
141023740197 10-23 19:59 600 N NEWNAN ST 13 SUSPICIOUS PERSON
141023740163 10-23 19:58 3400 W EVE DR 21CT BURGLARY CONVEYANCE TELESERVE
141023740191 10-23 19:58 11200 HARTLAND RD 32 BURGLAR ALARM - AUDIBLE
141023740175 10-23 19:57 5600 EDENFIELD RD 9T THEFT (TELESERVE)
141023740129 10-23 19:57 5500 LENOX AVE 50 FOUND/ABANDONED PROPERTY
141023740193 10-23 19:57 3300 W 20TH ST 14B VANDALISM BUSINESS
141023740177 10-23 19:56 5800 S BARNES RD 33 DISCHARGING OF FIREARM
141023740171 10-23 19:56 4800 RICHARD ST 33 DISCHARGING OF FIREARM
141023740178 10-23 19:56 300 BUSCH DR 4 63 CRASH INVOLVING DISPUTE
141023740174 10-23 19:50 7600 HARE AVE 64 NOISE COMPLAINT
141023740128 10-23 19:47 7500 PATRICE CT 2288 DOMESTIC DISPUTE WITH/ASSAULT
141023740152 10-23 19:47 600 E ADAMS ST 37 UNVERIFIED 911 CALL
141023740126 10-23 19:47 E ADAMS ST AND A PHILIP RANDOLPH BLVD 4 AUTO CRASH
141023740120 10-23 19:46 REGENCY SQUARE BLVD AND GILMORE HEIGHTS RD 4 AUTO CRASH
141023740121 10-23 19:46 5800 JUSTINA CT 33 DISCHARGING OF FIREARM
141023740162 10-23 19:46 5700 W UNIVERSITY BLVD 32 BURGLAR ALARM - AUDIBLE
141023740165 10-23 19:46 100 S HALSEMA RD 32S BURGLAR ALARM - SILENT
141023740149 10-23 19:46 12600 THICKET RIDGE DR 1066 CANCEL
141023740146 10-23 19:46 S CHAFFEE RD AND E I10 EXPWY 3 HIT AND RUN CRASH
141023740071 10-23 19:46 11000 PHILLIPS HWY 63 DISPUTE
141023740157 10-23 19:45 10500 BEACH BLVD 3 HIT AND RUN CRASH
141023740117 10-23 19:45 8000 ATLANTIC BLVD 79 OBSCENE OR THREATENING COMM
141023740147 10-23 19:44 ATLANTIC BLVD AND SOUTHSIDE BLVD 16 ROAD OBSTRUCTION
141023740156 10-23 19:44 1800 CLEVELAND ST 37 UNVERIFIED 911 CALL
141023740160 10-23 19:44 5000 CLEVELAND RD 13 SUSPICIOUS PERSON
141023740158 10-23 19:44 S I295 EXPWY AND ZOO PKWY 12 RECKLESS DRIVER
141023740155 10-23 19:43 GOLFAIR BLVD AND BRENTWOOD AVE 56 JUVENILE COMPLAINT
141023740091 10-23 19:43 600 CANDLEBARK DR 63 DISPUTE
141023740133 10-23 19:42 10300 SAN JOSE BLVD 32 BURGLAR ALARM - AUDIBLE
141023740153 10-23 19:42 2200 ENDVIEW CT 8 27 MISSING MENTALLY ILL
141023740140 10-23 19:41 S UNIVERSITY BLVD AND BEACH BLVD 1066 CANCEL
141023740141 10-23 19:40 7100 ESTHER ST 32 BURGLAR ALARM - AUDIBLE
141023740144 10-23 19:39 11100 BRIDGES RD 1066 CANCEL
141023740137 10-23 19:37 1400 MANOTAK POINT DR 27 MENTALLY ILL PERSON
141023740006 10-23 19:37 2700 RIVERSIDE AVE 21CT BURGLARY CONVEYANCE TELESERVE
141023740135 10-23 19:36 5400 MATANZAS WAY 63 DISPUTE
141023740132 10-23 19:36 5100 WESTCHASE CT 63 DISPUTE
141023740130 10-23 19:34 BEACH BLVD AND BEACHWOOD BLVD 4 AUTO CRASH
141023740106 10-23 19:33 9000 JASPER AVE 63 DISPUTE
141023740123 10-23 19:32 200 W FORSYTH ST 13 SUSPICIOUS PERSON
141023740055 10-23 19:29 9400 103RD ST 63 DISPUTE
141023740066 10-23 19:27 5700 GREEN PALM LN 64 NOISE COMPLAINT
141023740115 10-23 19:27 9100 NORFOLK BLVD 60 SUICIDE OR ATTEMPT
141023740062 10-23 19:25 11700 PALM LAKE DR 1066 CANCEL
141023740068 10-23 19:25 2700 GREEN ST 2288 DOMESTIC DISPUTE WITH/ASSAULT
141023740029 10-23 19:24 4600 KERLE ST 50 FOUND/ABANDONED PROPERTY
141023740103 10-23 19:24 1700 ART MUSEUM DR 76 ASSIST OTHER AGENCY
141023740101 10-23 19:23 PHILLIPS HWY AND BAYCENTER RD 12 RECKLESS DRIVER
141023740102 10-23 19:22 11900 BEACH BLVD 76 ASSIST OTHER AGENCY
141023740099 10-23 19:21 5300 110TH ST 63 DISPUTE
141023740097 10-23 19:20 4700 PARIS AVE 1066 CANCEL
141023740089 10-23 19:18 2900 JUSTINA RD 63 DISPUTE
141023740084 10-23 19:16 9800 ATLANTIC BLVD 63 DISPUTE
141023740080 10-23 19:14 E 27TH ST AND N MAIN ST 23IP ROBBERY INDIVIDUAL IN PROGRESS
141023739997 10-23 19:14 S MC DUFF AVE AND PHYLLIS ST 19 ANIMAL INVESTIGATION
141023740076 10-23 19:12 7200 LEM TURNER RD 32X SILENT ALARM (ROBBERY PANIC OR AWARE)
141023740034 10-23 19:12 5100 GATE PKWY 13 SUSPICIOUS PERSON
141023740022 10-23 19:12 LANDON AVE AND MINERVA AVE 13 SUSPICIOUS PERSON
141023740074 10-23 19:11 6300 ARLINGTON EXPWY 27 MENTALLY ILL PERSON
141023740047 10-23 19:10 2900 PIMLICO LN 27 MENTALLY ILL PERSON
141023740038 10-23 19:09 4600 W SOLANDRA CIR 1066 CANCEL
141023739995 10-23 19:09 6800 103RD ST 14 VANDALISM
141023740072 10-23 19:08 14600 DUVAL RD 76 ASSIST OTHER AGENCY
141023739858 10-23 19:08 900 W FONTANA CT 63 DISPUTE
141023740035 10-23 19:07 8000 ATLANTIC BLVD 9T THEFT (TELESERVE)
141023740017 10-23 19:06 12600 BEACH BLVD 73 DRUG INVESTIGATION
141023740059 10-23 19:04 2400 LEON RD 1 IMPAIRED/RECKLESS DRIVER
141023740057 10-23 19:03 5500 N PEARL ST 8 27 MISSING MENTALLY ILL
141023739941 10-23 19:03 3500 UNIVERSITY BLVD 4 AUTO CRASH
141023740053 10-23 19:02 1100 RANDOLPH ST 5388 ASSAULT INVOLVING INJURY
141023740044 10-23 19:02 9800 HUTCHINSON PARK DR 5582 HOLDING ONE FOR SHOPLIFTING
141023740049 10-23 19:02 7100 E CUMBRIA BLVD 63 DISPUTE
141023740048 10-23 19:02 10300 SWARTHMORE DR 63 DISPUTE
141023740011 10-23 19:01 8800 103RD ST 8 MISSING PERSON
141023739992 10-23 19:00 3000 ROSSELLE ST 6388 DISPUTE WITH ASSAULT